[[{"header":{"parameterUnit":"m.s-1","parameterCategory":1,"la1":30.2991,"la2":30.254,"lo1":-89.0895,"lo2":-89.0444,"dy":0.0017,"dx":0.0017,"nx":28,"ny":28,"refTime":"2024-04-22T03:00:00:Z","depth":0,"parameterNumber":2,"parameterNumberName":"U-component_of_WINDS"},"data":[0,0,0,0,0,0,0,0,0,0,0,0,0,0,0,0,0,0,0,0,0,0,0,0,0,0,0,0,0,0,0,0,0,0,0,0,0,0,0,0,0,0,0,0,0,0,0,0,0,0,0,0,0,0,0,0,0,0,-1.2602,-1.2602,0,-1.2572,-1.2571,-1.2571,-1.253,-1.2529,-1.2528,-1.2528,-1.2497,-1.2497,-1.2497,0,0,0,0,0,0,0,0,0,0,0,0,0,-1.2624,-1.2624,-1.2602,-1.2602,-1.2601,-1.2572,-1.2571,-1.2571,-1.253,-1.2529,-1.2528,-1.2527,-1.2497,-1.2497,-1.2497,0,0,0,0,0,0,0,0,0,0,0,0,0,-1.2607,-1.2624,-1.2602,-1.2577,-1.2575,-1.2572,-1.2571,-1.2571,-1.253,-1.2529,-1.2528,-1.2527,-1.2497,-1.2497,-1.2497,-1.2516,0,0,-1.2496,-1.2496,0,0,0,0,0,0,0,0,-1.2608,-1.2606,-1.2581,-1.2579,-1.2576,-1.2553,-1.2568,-1.2553,-1.253,-1.2547,-1.2528,-1.2526,-1.2517,-1.2515,-1.2512,-1.2515,-1.2514,-1.2496,-1.2496,-1.2496,-1.2496,0,0,0,0,0,0,0,-1.2609,-1.2607,-1.259,-1.2581,-1.2578,-1.2568,-1.2564,-1.2565,-1.2538,-1.2546,-1.2542,-1.2539,-1.2515,-1.2512,-1.2511,-1.2513,-1.2496,-1.2496,-1.2496,-1.2496,-1.2531,-1.2532,0,0,0,0,0,0,-1.2614,-1.2608,-1.2591,-1.2589,-1.259,-1.2568,-1.2564,-1.2562,-1.2538,-1.2533,-1.254,-1.2538,-1.2513,-1.2511,-1.2509,-1.253,-1.2496,-1.2496,-1.2496,-1.2529,-1.2531,-1.2532,0,0,0,0,0,0,-1.2614,-1.2613,-1.2592,-1.2598,-1.2594,-1.2569,-1.2567,-1.2562,-1.2558,-1.2534,-1.2529,-1.2542,-1.2512,-1.251,-1.2515,-1.2529,-1.2496,-1.2495,-1.2528,-1.253,-1.2531,-1.2573,0,0,0,0,0,0,-1.2615,-1.2613,-1.262,-1.2598,-1.2594,-1.2598,-1.2568,-1.2562,-1.2558,-1.2554,-1.2534,-1.253,-1.2511,-1.2515,-1.2515,-1.2528,-1.2495,-1.2527,-1.2529,-1.2531,-1.257,-1.2576,-1.2581,0,0,0,0,0,-1.2616,-1.2633,-1.2621,-1.2619,-1.2603,-1.2599,-1.2597,-1.2575,-1.2559,-1.2566,-1.2551,-1.2531,-1.2527,-1.2516,-1.2515,-1.2528,-1.2526,-1.2528,-1.2531,-1.2568,-1.2575,-1.258,0,0,0,0,0,0,-1.2658,-1.263,-1.2616,-1.2627,-1.2616,-1.2592,-1.2601,-1.2583,-1.2576,-1.2573,-1.2545,-1.2541,-1.255,-1.2539,-1.2528,-1.2546,-1.2524,-1.2526,-1.2552,-1.2559,-1.2564,-1.2566,-1.2495,0,0,0,0,0,-1.2669,-1.2668,-1.2644,-1.2655,-1.2651,-1.2627,-1.2624,-1.2608,-1.2595,-1.2591,-1.2575,-1.2564,-1.2561,-1.2559,-1.2554,-1.2568,-1.2563,-1.2577,-1.2582,-1.2586,-1.2589,-1.2595,-1.2601,-1.254,-1.254,-1.254,0,0,-1.269,-1.2675,-1.2676,-1.2663,-1.2653,-1.2653,-1.2623,-1.2624,-1.2624,-1.2591,-1.2595,-1.2583,-1.2569,-1.2579,-1.2582,-1.257,-1.2604,-1.2589,-1.2593,-1.2593,-1.2598,-1.2604,-1.2609,-1.2541,-1.2541,-1.2541,0,0,-1.273,-1.2718,-1.2727,-1.2717,-1.2701,-1.2685,-1.2687,-1.2666,-1.2657,-1.266,-1.2635,-1.2635,-1.2629,-1.262,-1.2614,-1.265,-1.2631,-1.2649,-1.2676,-1.2683,-1.2688,-1.2692,-1.2705,-1.271,-1.2651,-1.2652,-1.2652,0,-1.2759,-1.2758,-1.2733,-1.2736,-1.2731,-1.2701,-1.2709,-1.27,-1.2684,-1.2682,-1.2669,-1.266,-1.2649,-1.2656,-1.2664,-1.2661,-1.2662,-1.2652,-1.2689,-1.2693,-1.2696,-1.2708,-1.2713,-1.2654,-1.2654,-1.2653,-1.2653,0,-1.2795,-1.2795,-1.2803,-1.2788,-1.2784,-1.279,-1.2765,-1.2764,-1.2748,-1.2733,-1.2737,-1.2721,-1.2713,-1.2713,-1.2698,-1.2718,-1.2711,-1.2694,-1.2671,-1.2705,-1.2716,-1.272,-1.2657,-1.2656,-1.2656,-1.2655,0,0,-1.2861,-1.2831,-1.2835,-1.2828,-1.2808,-1.2807,-1.2811,-1.2803,-1.2802,-1.2792,-1.2795,-1.279,-1.2774,-1.2768,-1.2751,-1.2756,-1.2786,-1.2738,-1.2738,-1.2748,-1.2807,-1.282,-1.2826,-1.2773,-1.2773,-1.2774,-1.2808,0,-1.2897,-1.2902,-1.288,-1.2891,-1.289,-1.2861,-1.2864,-1.2853,-1.2839,-1.2836,-1.2821,-1.2818,-1.2797,-1.2793,-1.2797,-1.2781,-1.2797,-1.2778,-1.2775,-1.2776,-1.278,-1.2832,-1.2846,-1.2879,-1.2812,-1.2813,-1.2813,0,-1.294,-1.2932,-1.2943,-1.2922,-1.2921,-1.2925,-1.2915,-1.2913,-1.2899,-1.2888,-1.2881,-1.2861,-1.2863,-1.2841,-1.2844,-1.2832,-1.2829,-1.2821,-1.2822,-1.2821,-1.2797,-1.2833,-1.2889,-1.2894,-1.282,-1.2819,-1.2819,0,-1.2988,-1.2979,-1.2985,-1.2979,-1.2955,-1.2958,-1.2948,-1.2933,-1.2929,-1.2921,-1.2918,-1.291,-1.2905,-1.2899,-1.2878,-1.2863,-1.2883,-1.2859,-1.2875,-1.2875,-1.2881,-1.2881,-1.2938,-1.2878,-1.2878,-1.2878,-1.2878,0,-1.3031,-1.3039,-1.3006,-1.3009,-1.3017,-1.2991,-1.3,-1.2987,-1.2973,-1.2974,-1.2947,-1.2948,-1.2919,-1.2917,-1.29,-1.2905,-1.2903,-1.2895,-1.289,-1.2898,-1.2899,-1.2896,-1.2893,-1.2879,-1.2879,-1.2879,-1.2879,0,-1.3086,-1.3064,-1.3068,-1.3044,-1.3038,-1.3045,-1.3025,-1.3027,-1.3011,-1.3012,-1.3011,-1.2986,-1.2982,-1.2959,-1.295,-1.2939,-1.295,-1.2941,-1.2955,-1.2952,-1.2969,-1.2968,-1.3026,-1.3033,-1.2969,-1.297,-1.297,0,-1.3115,-1.312,-1.3097,-1.3095,-1.3087,-1.3084,-1.308,-1.3054,-1.3051,-1.3035,-1.3039,-1.3033,-1.3026,-1.3021,-1.3002,-1.2995,-1.2985,-1.3006,-1.2984,-1.2991,-1.2986,-1.2986,-1.2986,-1.3011,-1.3012,-1.3013,-1.3013,0,-1.3169,-1.3158,-1.3153,-1.3144,-1.3139,-1.3131,-1.3121,-1.3121,-1.3092,-1.309,-1.3085,-1.308,-1.3071,-1.3065,-1.3054,-1.3044,-1.3024,-1.302,-1.3024,-1.3031,-1.3039,-1.3035,-1.2968,-1.3019,-1.3019,-1.3018,-1.3018,-1.3018,-1.3212,-1.3215,-1.32,-1.3195,-1.3184,-1.3176,-1.3176,-1.316,-1.3156,-1.3146,-1.3131,-1.3128,-1.3113,-1.3097,-1.3088,-1.3086,-1.3074,-1.3079,-1.308,-1.3082,-1.3086,-1.3039,-1.3083,-1.3083,-1.3083,-1.3083,-1.3083,0,-1.3265,-1.3253,-1.3249,-1.3236,-1.3232,-1.3213,-1.3201,-1.3199,-1.3197,-1.3185,-1.3179,-1.3173,-1.3167,-1.3148,-1.3139,-1.3141,-1.3132,-1.314,-1.314,-1.3138,-1.3096,-1.3094,-1.3148,-1.3148,-1.3148,-1.3148,-1.3148,-1.3148,-1.3292,-1.3297,-1.3284,-1.3283,-1.3271,-1.3268,-1.3263,-1.3255,-1.3245,-1.324,-1.3234,-1.3221,-1.3206,-1.3196,-1.319,-1.3184,-1.3183,-1.3194,-1.3186,-1.3147,-1.3141,-1.3135,-1.3133,-1.3194,-1.3194,-1.3227,-1.3228,-1.3228]},{"header":{"parameterUnit":"m.s-1","parameterCategory":1,"la1":30.2991,"la2":30.254,"lo1":-89.0895,"lo2":-89.0444,"dy":0.0017,"dx":0.0017,"nx":28,"ny":28,"refTime":"2024-04-22T03:00:00:Z","depth":0,"parameterNumber":3,"parameterNumberName":"V-component_of_WINDS"},"data":[0,0,0,0,0,0,0,0,0,0,0,0,0,0,0,0,0,0,0,0,0,0,0,0,0,0,0,0,0,0,0,0,0,0,0,0,0,0,0,0,0,0,0,0,0,0,0,0,0,0,0,0,0,0,0,0,0,0,-4.4082,-4.4082,0,-4.4135,-4.4136,-4.4136,-4.4133,-4.4132,-4.4131,-4.413,-4.4181,-4.4183,-4.4185,0,0,0,0,0,0,0,0,0,0,0,0,0,-4.3973,-4.3975,-4.4082,-4.4082,-4.4083,-4.4135,-4.4136,-4.4137,-4.4133,-4.4132,-4.4131,-4.413,-4.4181,-4.4183,-4.4186,0,0,0,0,0,0,0,0,0,0,0,0,0,-4.4023,-4.3976,-4.4081,-4.4087,-4.4089,-4.4135,-4.4136,-4.4137,-4.4133,-4.4132,-4.4131,-4.413,-4.418,-4.4183,-4.4186,-4.4229,0,0,-4.4195,-4.4197,0,0,0,0,0,0,0,0,-4.402,-4.4027,-4.4086,-4.4087,-4.4088,-4.4126,-4.4116,-4.4167,-4.4133,-4.4116,-4.413,-4.4129,-4.4164,-4.4168,-4.418,-4.4231,-4.4233,-4.4196,-4.4198,-4.4199,-4.42,0,0,0,0,0,0,0,-4.4016,-4.4024,-4.4103,-4.4087,-4.4088,-4.4086,-4.4092,-4.4126,-4.4146,-4.4117,-4.4117,-4.4124,-4.4164,-4.4177,-4.4182,-4.4234,-4.4196,-4.4198,-4.42,-4.4201,-4.4324,-4.4325,0,0,0,0,0,0,-4.4012,-4.4021,-4.4101,-4.4104,-4.4051,-4.4089,-4.4096,-4.4115,-4.4145,-4.4149,-4.4125,-4.4124,-4.4173,-4.4178,-4.4183,-4.4237,-4.4199,-4.4202,-4.4204,-4.4322,-4.4324,-4.4326,0,0,0,0,0,0,-4.401,-4.4019,-4.4099,-4.4063,-4.4073,-4.4093,-4.4114,-4.4117,-4.413,-4.4151,-4.4154,-4.4135,-4.4172,-4.4179,-4.4218,-4.4239,-4.4203,-4.4206,-4.4321,-4.4323,-4.4325,-4.4344,0,0,0,0,0,0,-4.4007,-4.4018,-4.4035,-4.4063,-4.4075,-4.4133,-4.4115,-4.4119,-4.4136,-4.4135,-4.4161,-4.4165,-4.4172,-4.4213,-4.4221,-4.4242,-4.4208,-4.4319,-4.4322,-4.4324,-4.4341,-4.4346,-4.435,0,0,0,0,0,-4.4003,-4.4037,-4.4036,-4.4046,-4.4097,-4.4135,-4.4141,-4.415,-4.4138,-4.4155,-4.4168,-4.4164,-4.4235,-4.4217,-4.4226,-4.4248,-4.4318,-4.4321,-4.4324,-4.4339,-4.4345,-4.435,0,0,0,0,0,0,-4.4009,-4.4041,-4.404,-4.4085,-4.4107,-4.4134,-4.4156,-4.4155,-4.418,-4.4178,-4.4186,-4.4192,-4.4232,-4.4244,-4.4224,-4.4292,-4.4275,-4.428,-4.4283,-4.4289,-4.4293,-4.429,-4.4211,0,0,0,0,0,-4.4016,-4.4045,-4.4071,-4.4108,-4.4119,-4.4136,-4.4152,-4.4157,-4.418,-4.4189,-4.4205,-4.4227,-4.4254,-4.4272,-4.4298,-4.4343,-4.4349,-4.4362,-4.4367,-4.437,-4.4375,-4.4401,-4.4408,-4.4336,-4.4336,-4.4336,0,0,-4.403,-4.4051,-4.4069,-4.411,-4.4128,-4.4158,-4.4144,-4.4175,-4.4197,-4.4193,-4.4233,-4.4245,-4.427,-4.4312,-4.4332,-4.4323,-4.4396,-4.4374,-4.4377,-4.438,-4.4405,-4.4411,-4.4418,-4.4338,-4.4338,-4.4337,0,0,-4.4071,-4.4089,-4.4123,-4.4142,-4.4171,-4.4182,-4.419,-4.4217,-4.4226,-4.4265,-4.4264,-4.4289,-4.4336,-4.4354,-4.4369,-4.4419,-4.4417,-4.4427,-4.4451,-4.4476,-4.4482,-4.4487,-4.4506,-4.4513,-4.4432,-4.4432,-4.4432,0,-4.4085,-4.4131,-4.414,-4.4173,-4.4192,-4.4192,-4.4226,-4.4243,-4.4278,-4.429,-4.4281,-4.4341,-4.4357,-4.4405,-4.4417,-4.4429,-4.4439,-4.4425,-4.4481,-4.4486,-4.4491,-4.4509,-4.4516,-4.4433,-4.4433,-4.4433,-4.4432,0,-4.4147,-4.4178,-4.4202,-4.4238,-4.4259,-4.4292,-4.4307,-4.4326,-4.433,-4.4341,-4.4382,-4.4402,-4.4433,-4.4444,-4.4446,-4.4493,-4.4487,-4.4479,-4.4462,-4.4499,-4.4516,-4.4523,-4.4435,-4.4434,-4.4434,-4.4434,0,0,-4.4193,-4.4235,-4.4244,-4.4261,-4.4293,-4.4318,-4.4351,-4.4383,-4.44,-4.4424,-4.4453,-4.4493,-4.4486,-4.4504,-4.4508,-4.453,-4.4571,-4.452,-4.452,-4.453,-4.4624,-4.4631,-4.4639,-4.4569,-4.457,-4.4571,-4.4623,0,-4.4238,-4.43,-4.431,-4.4363,-4.4393,-4.4395,-4.4424,-4.4446,-4.4458,-4.4485,-4.4497,-4.4526,-4.4514,-4.4525,-4.4547,-4.4561,-4.459,-4.4557,-4.4595,-4.4597,-4.4591,-4.4648,-4.4655,-4.4703,-4.4629,-4.4631,-4.4631,0,-4.43,-4.4328,-4.4385,-4.4415,-4.4428,-4.4454,-4.4485,-4.4511,-4.4536,-4.4543,-4.4564,-4.4566,-4.46,-4.4581,-4.4629,-4.4607,-4.4623,-4.4632,-4.4634,-4.4639,-4.4617,-4.4656,-4.4719,-4.4726,-4.4642,-4.4641,-4.464,0,-4.433,-4.4382,-4.4423,-4.4438,-4.4473,-4.4492,-4.4507,-4.4531,-4.4551,-4.4577,-4.459,-4.4619,-4.4636,-4.4658,-4.4669,-4.4654,-4.4716,-4.4697,-4.4723,-4.4723,-4.4737,-4.4737,-4.4805,-4.4745,-4.4745,-4.4745,-4.4745,0,-4.4381,-4.4416,-4.4438,-4.4463,-4.4503,-4.4514,-4.4553,-4.4567,-4.4589,-4.4617,-4.4618,-4.4644,-4.4656,-4.4683,-4.4691,-4.4731,-4.4737,-4.4744,-4.4746,-4.4745,-4.4744,-4.4756,-4.4754,-4.4747,-4.4747,-4.4746,-4.4746,0,-4.4422,-4.4438,-4.4483,-4.4514,-4.4522,-4.455,-4.4576,-4.46,-4.4612,-4.4648,-4.4657,-4.4676,-4.4708,-4.4721,-4.476,-4.4765,-4.4811,-4.4809,-4.4803,-4.4804,-4.483,-4.4828,-4.491,-4.4922,-4.4853,-4.4853,-4.4854,0,-4.4454,-4.4481,-4.4515,-4.4535,-4.4552,-4.4583,-4.4604,-4.4616,-4.4637,-4.4669,-4.469,-4.4723,-4.475,-4.4802,-4.4819,-4.4849,-4.4849,-4.4876,-4.4854,-4.4852,-4.4852,-4.4851,-4.4854,-4.488,-4.4881,-4.4881,-4.4882,0,-4.4509,-4.4517,-4.4547,-4.4581,-4.4606,-4.4632,-4.4658,-4.4674,-4.4689,-4.4713,-4.4748,-4.4769,-4.481,-4.4843,-4.4875,-4.4889,-4.4889,-4.4889,-4.4897,-4.4896,-4.4893,-4.4897,-4.4816,-4.4887,-4.4886,-4.4886,-4.4886,-4.4886,-4.4548,-4.4573,-4.4602,-4.4636,-4.4657,-4.4682,-4.4707,-4.4724,-4.4753,-4.479,-4.4794,-4.4832,-4.4857,-4.49,-4.4916,-4.4945,-4.4938,-4.4949,-4.4952,-4.4955,-4.4958,-4.4887,-4.495,-4.495,-4.495,-4.495,-4.495,0,-4.4605,-4.4624,-4.4656,-4.4693,-4.472,-4.4718,-4.4747,-4.477,-4.4803,-4.4828,-4.4855,-4.4896,-4.4928,-4.4948,-4.4981,-4.5,-4.5001,-4.5008,-4.5008,-4.5011,-4.4961,-4.4952,-4.5008,-4.5008,-4.5008,-4.5008,-4.5008,-4.5008,-4.4638,-4.4682,-4.4693,-4.4747,-4.4765,-4.4804,-4.482,-4.4843,-4.4863,-4.4909,-4.4937,-4.495,-4.4973,-4.5007,-4.5037,-4.5042,-4.5054,-4.5063,-4.5068,-4.5021,-4.5015,-4.5009,-4.5,-4.5065,-4.5065,-4.5115,-4.5116,-4.5116]}]]